Flag Weather past 2 weeks in Muyinga, Burundi

Now
68 °F

Passing clouds.


Feels Like: 68 °F
Forecast: 57 / 74 °F
Wind: 3 mph from Northwest

Location: Kigali Airport

Current Time: Nov 28, 2014 at 10:53:33 PM

Latest Report: Nov 28, 2014 at 10:30 PM


Visibility: N/A

Pressure: 30.15 "Hg

Humidity: 88%

Dew point: 64 °F

Location of MuyingaLocation

Historic Weather in Muyinga — Graph

°F

Muyinga temperature yesterday

Maximum temperature yesterday: 81 °F (at 1:00 PM)
Minimum temperature yesterday: 59 °F (at 6:00 AM)
Average temperature yesterday: 66 °F

Past Weeks' High & Low Weather Summary

 TemperatureHumidityPressure
High84 °F (Nov 28, 2:00 PM)100% (Nov 13, 10:00 PM)30.24 "Hg (Nov 13, 10:00 PM)
Low59 °F (Nov 16, 3:00 AM)48% (Nov 28, 2:30 PM)29.98 "Hg (Nov 17, 3:00 PM)
Average68 °F88%30.11 "Hg
* Reported Nov 13 10:00 PM — Nov 28 10:00 PM, Muyinga, Weather by CustomWeather, © 2014

Note: Actual official high and low records may vary slightly from our data, if they occured in-between our weather recording intervals... More about our weather records

Advertising

Muyinga weather history for previous 24 hours

 ConditionsComfort  
Time TempWeatherWind HumidityBarometerVisibility
10:00 PM
Nov 28
70 °FPartly cloudy.5 mph83%30.15 "HgN/A
9:30 PM70 °FPartly cloudy.3 mph88%30.15 "HgN/A
9:00 PM70 °FPartly cloudy.No wind83%30.15 "HgN/A
8:30 PM70 °FPartly cloudy.No wind83%30.15 "HgN/A
8:00 PM72 °FPartly cloudy.5 mph78%30.12 "HgN/A
7:30 PM72 °FPassing clouds.6 mph78%30.12 "HgN/A
7:00 PM72 °FPassing clouds.3 mph83%30.12 "HgN/A
6:30 PM70 °FPassing clouds.2 mph88%30.09 "HgN/A
6:00 PM72 °FPassing clouds.2 mph83%30.09 "HgN/A
5:00 PM73 °FScattered clouds.8 mph78%30.04 "HgN/A
4:30 PM75 °FScattered clouds.8 mph74%30.04 "HgN/A
4:00 PM77 °FScattered clouds.8 mph69%30.04 "HgN/A
3:30 PM79 °FScattered clouds.7 mph61%30.04 "HgN/A
3:00 PM81 °FScattered clouds.7 mph54%30.04 "HgN/A
2:30 PM84 °FScattered clouds.3 mph48%30.07 "HgN/A
2:00 PM84 °FScattered clouds.3 mph51%30.07 "HgN/A
1:30 PM81 °FScattered clouds.7 mph58%30.09 "HgN/A
1:00 PM81 °FScattered clouds.6 mph58%30.09 "HgN/A
11:30 AM79 °FScattered clouds.6 mph65%30.15 "HgN/A
11:00 AM75 °FScattered clouds.No wind74%30.15 "HgN/A
10:30 AM72 °FScattered clouds.5 mph83%30.18 "HgN/A
10:00 AM72 °FScattered clouds.No wind88%30.18 "HgN/A
9:30 AM72 °FBroken clouds.No wind83%30.18 "HgN/A
9:00 AM70 °FBroken clouds.No wind88%30.18 "Hg5 mi
8:30 AM66 °FBroken clouds.No wind100%30.15 "Hg4 mi
8:00 AM64 °FBroken clouds.No wind100%30.18 "Hg4 mi
7:30 AM64 °FLight rain. Broken clouds.No wind100%30.15 "Hg4 mi
7:00 AM63 °FBroken clouds.No wind100%30.15 "Hg4 mi
6:30 AM63 °FBroken clouds.No wind100%30.15 "Hg4 mi
6:00 AM63 °FBroken clouds.No wind100%30.12 "Hg5 mi
5:30 AM63 °FPassing clouds.No wind100%30.12 "Hg5 mi
5:00 AM63 °FPassing clouds.No wind100%30.12 "Hg5 mi
4:30 AM63 °FPassing clouds.3 mph100%30.12 "Hg5 mi
4:00 AM63 °FPassing clouds.3 mph100%30.09 "Hg5 mi
3:30 AM63 °FPassing clouds.No wind100%30.09 "Hg5 mi
3:00 AM63 °FPassing clouds.No wind100%30.09 "Hg5 mi
2:00 AM63 °FPassing clouds.No wind100%30.12 "HgN/A
1:30 AM63 °FPassing clouds.No wind100%30.12 "HgN/A
1:00 AM63 °FPassing clouds.No wind100%30.12 "HgN/A
12:30 AM63 °FPassing clouds.No wind100%30.12 "HgN/A
12:00 AM63 °FPassing clouds.No wind100%30.12 "HgN/A
11:30 PM
Nov 27
63 °FPassing clouds.No wind100%30.12 "HgN/A
11:00 PM63 °FPassing clouds.No wind100%30.15 "HgN/A
10:30 PM63 °FPartly cloudy.No wind100%30.12 "HgN/A
10:00 PM63 °FPartly cloudy.No wind100%30.12 "HgN/A
Weather by CustomWeather, © 2014

See weather overviewHow to use our weather pages